Weather History for Gwinn, MI

Change the Weather History Date:

Sunday, March 30, 2014

  Actual Average (KESC) Record (KESC)
Temperature  
Mean Temperature 32 °F -  
Max Temperature 44 °F 39 °F 62 °F (1963)
Min Temperature 19 °F 26 °F 7 °F (1969)
Degree Days  
Heating Degree Days 34    
Moisture  
Dew Point 20 °F    
Average Humidity 68    
Maximum Humidity 81    
Minimum Humidity 46    
Precipitation  
Precipitation 0.00 in - - ()
Sea Level Pressure  
Sea Level Pressure 30.08 in    
Wind  
Wind Speed 8 mph (SSW)    
Max Wind Speed 22 mph    
Max Gust Speed 31 mph    
Visibility 10 miles    
Events      
Averages and records for this station are not official NWS values.
T = Trace of Precipitation, MM = Missing Value Source: NWS Daily Summary

Daily Weather History Graph

Daily Weather History Graph

Search for Another Location

Airport:

Trip Planner

Search our weather history database for the weather conditions in past years. The results will help you decide how hot, cold, wet, or windy it might be!

Date:

Astronomy

Mar. 30, 2014 Rise Set
Actual Time 7:33 AM EDT 8:15 PM EDT
Civil Twilight 7:02 AM EDT 8:46 PM EDT
Nautical Twilight 6:26 AM EDT 9:22 PM EDT
Astronomical Twilight 5:49 AM EDT 10:00 PM EDT
Moon 7:18 AM EDT (3/30) 8:29 PM EDT (3/30)
Length of Visible Light 13h 43m
Length of Day
12h 42m
Waning Crescent, 0% of the Moon is Illuminated
Mar 30
Waning Crescent
Mar 30
New
Apr 7
First Quarter
Apr 15
Full
Apr 22
Last Quarter

Hourly Weather History & Observations

Time (EDT) Temp. Windchill Dew Point Humidity Pressure Visibility Wind Dir Wind Speed Gust Speed Precip Events Conditions
12:17 AM 24.8 °F 19.1 °F 16.5 °F 71% 30.20 in 10.0 mi South 4.6 mph - N/A   Clear
12:36 AM 24.4 °F 16.5 °F 16.7 °F 72% 30.20 in 10.0 mi South 6.9 mph - N/A   Clear
12:56 AM 24.4 °F 16.5 °F 16.5 °F 72% 30.19 in 10.0 mi South 6.9 mph - N/A   Clear
1:17 AM 22.1 °F 14.7 °F 15.3 °F 75% 30.20 in 10.0 mi SSW 5.8 mph - N/A   Clear
1:36 AM 21.7 °F 14.3 °F 15.8 °F 78% 30.19 in 10.0 mi South 5.8 mph - N/A   Clear
1:57 AM 21.4 °F 13.8 °F 15.1 °F 77% 30.19 in 10.0 mi SSW 5.8 mph - N/A   Clear
2:16 AM 21.2 °F 13.6 °F 14.5 °F 75% 30.19 in 10.0 mi SSW 5.8 mph - N/A   Clear
2:36 AM 22.1 °F 14.7 °F 15.8 °F 77% 30.19 in 10.0 mi SSW 5.8 mph - N/A   Clear
2:57 AM 22.8 °F 14.5 °F 15.8 °F 74% 30.18 in 10.0 mi South 6.9 mph - N/A   Clear
3:16 AM 21.0 °F 12.4 °F 14.5 °F 76% 30.17 in 10.0 mi South 6.9 mph - N/A   Clear
3:36 AM 22.6 °F 13.4 °F 15.4 °F 74% 30.16 in 10.0 mi South 8.1 mph - N/A   Clear
3:57 AM 22.8 °F 13.6 °F 14.7 °F 71% 30.15 in 10.0 mi South 8.1 mph - N/A   Clear
4:16 AM 21.2 °F 12.6 °F 13.8 °F 73% 30.15 in 10.0 mi South 6.9 mph - N/A   Clear
4:37 AM 20.1 °F 11.3 °F 13.1 °F 74% 30.15 in 10.0 mi SSW 6.9 mph - N/A   Clear
4:56 AM 19.8 °F 11.9 °F 13.8 °F 78% 30.15 in 10.0 mi SSW 5.8 mph - N/A   Clear
5:16 AM 21.9 °F 13.4 °F 14.7 °F 74% 30.15 in 10.0 mi South 6.9 mph - N/A   Clear
5:36 AM 21.6 °F 13.0 °F 14.5 °F 74% 30.15 in 10.0 mi South 6.9 mph - N/A   Clear
5:56 AM 19.9 °F 10.1 °F 13.1 °F 75% 30.14 in 10.0 mi SSW 8.1 mph - N/A   Clear
6:45 AM 23.0 °F 11.7 °F 14.0 °F 68% 30.13 in 10.0 mi South 11.5 mph - N/A   Clear
7:45 AM 19.4 °F 7.9 °F 12.2 °F 74% 30.12 in 10.0 mi SSW 10.4 mph - N/A   Mostly Cloudy
8:45 AM 23.0 °F 11.7 °F 12.2 °F 63% 30.11 in 10.0 mi SSW 11.5 mph - N/A   Mostly Cloudy
9:45 AM 26.6 °F 13.8 °F 15.8 °F 64% 30.10 in 10.0 mi SSW 17.3 mph - N/A   Scattered Clouds
10:45 AM 32.0 °F 21.6 °F 17.6 °F 55% 30.07 in 10.0 mi SSW 15.0 mph 25.3 mph N/A   Clear
11:45 AM 35.6 °F 24.2 °F 19.4 °F 52% 30.06 in 10.0 mi South 21.9 mph 31.1 mph N/A   Clear
12:52 PM 39.2 °F 29.3 °F 21.2 °F 49% 30.02 in 10.0 mi South 20.7 mph 29.9 mph N/A   Clear
1:50 PM 41.0 °F 31.6 °F 23.0 °F 49% 30.00 in 10.0 mi South 20.7 mph 26.5 mph N/A   Clear
2:45 PM 42.8 °F 34.8 °F 24.8 °F 49% 29.97 in 10.0 mi South 17.3 mph - N/A   Clear
2:55 PM 42.8 °F 34.3 °F 24.8 °F 49% 29.97 in 10.0 mi SSW 19.6 mph 25.3 mph N/A   Clear
3:50 PM 42.8 °F 34.3 °F 24.8 °F 49% 29.95 in 10.0 mi SSW 19.6 mph 24.2 mph N/A   Clear
4:45 PM 44.6 °F 37.2 °F 24.8 °F 46% 29.95 in 10.0 mi South 17.3 mph - N/A   Clear
5:55 PM 44.6 °F 40.2 °F 26.6 °F 49% 29.95 in 10.0 mi South 8.1 mph - N/A   Clear
6:55 PM 41.0 °F 35.2 °F 26.6 °F 57% 29.96 in 10.0 mi SSE 9.2 mph - N/A   Clear
7:55 PM 39.2 °F 32.5 °F 28.4 °F 65% 29.97 in 10.0 mi SSE 10.4 mph - N/A   Clear
8:50 PM 37.4 °F 30.8 °F 26.6 °F 65% 29.99 in 10.0 mi SSE 9.2 mph - N/A   Clear
9:55 PM 33.8 °F 26.4 °F 26.6 °F 75% 30.01 in 10.0 mi South 9.2 mph - N/A   Clear
10:17 PM 34.0 °F 27.2 °F 27.9 °F 78% 30.01 in 10.0 mi South 8.1 mph - N/A   Clear
10:36 PM 33.8 °F 27.0 °F 27.9 °F 79% 30.00 in 10.0 mi South 8.1 mph - N/A   Scattered Clouds
10:57 PM 33.3 °F 27.9 °F 27.9 °F 81% 30.00 in 10.0 mi South 5.8 mph - N/A   Scattered Clouds
11:16 PM 32.9 °F 28.5 °F 27.7 °F 81% 30.00 in 10.0 mi SSW 4.6 mph - N/A   Clear
11:36 PM 32.9 °F 29.8 °F 27.5 °F 81% 30.00 in 10.0 mi SW 3.5 mph - N/A   Clear
11:57 PM 32.7 °F 29.6 °F 27.5 °F 81% 30.01 in 10.0 mi SW 3.5 mph - N/A   Clear